Regional Weather Roundup
Issued by NWS Green Bay, WI

Home | Current Version | Previous Version | Text Only | Print | Product List | Glossary On
Versions: 1 2 3 4 5 6 7 8 9 10 11 12 13 14 15 16 17 18 19 20 21 22 23 24 25 26 27 28 29 30 31 32 33 34 35 36 37 38 39 40 41 42 43 44 45 46 47 48 49 50
000
ASUS43 KGRB 272211
RWRGRB

NORTH-CENTRAL AND NORTHEAST WISCONSIN REGIONAL WEATHER ROUNDUP
NATIONAL WEATHER SERVICE GREEN BAY WI
500 PM CDT THU AUG 27 2015

WIZ005-009-010>012-018-019-272300-
NORTH CENTRAL WISCONSIN

CITY           SKY/WX    TMP DP  RH WIND       PRES   REMARKS
IRONWOOD       FAIR      73  54  49 SW8       30.01S
MANITOWISH WTR FAIR      73  53  50 S7        30.06S
ARBOR VITAE    FAIR      73  54  50 S9        30.06F
EAGLE RIVER    FAIR      72  50  46 SW6       30.07S
LAND O LAKES   FAIR      73  52  46 S8        30.08S
RHINELANDER    FAIR      73  53  49 S8        30.09S
PHILLIPS       FAIR      73  57  57 SW8       30.06S
ANTIGO         FAIR      72  53  52 SW8       30.09S
TOMAHAWK       FAIR      73  55  53 SW6       30.09R
MERRILL        FAIR      73  56  54 SW6       30.09R
$$

WIZ013-073-272300-
NORTHEAST WISCONSIN

CITY           SKY/WX    TMP DP  RH WIND       PRES   REMARKS
IRON MOUNTAIN  FAIR      73  55  53 S7        30.06F
MARINETTE      FAIR      72  55  56 SW8       30.08S
OCONTO         FAIR      72  58  62 S5        30.08F
$$

WIZ017-030-035>037-045-272300-
CENTRAL WISCONSIN

CITY           SKY/WX    TMP DP  RH WIND       PRES   REMARKS
MEDFORD        FAIR      70  57  63 SW6       30.08S
WAUSAU         FAIR      74  55  51 SW7       30.07S
MOSINEE        MOSUNNY   73  55  53 S6        30.09S
MARSHFIELD     FAIR      74  54  49 S8        30.08R
WISC RAPIDS    FAIR      74  54  49 SW8       30.09S
STEVENS POINT  FAIR      73  52  48 S6        30.08S
WAUPACA        FAIR      78  53  41 S6        30.08F
SHAWANO        FAIR      76  56  48 SW5       30.08F
CLINTONVILLE   FAIR      75  52  43 S8        30.08S
WAUTOMA        FAIR      77  55  46 S8        30.08F
$$

WIZ038-039-048-051-272300-
FOX VALLEY

CITY           SKY/WX    TMP DP  RH WIND       PRES   REMARKS
NWS GREEN BAY  FAIR      74  58  57 S7        30.09S
APPLETON       MOSUNNY   73  50  43 S9        30.09S
OSHKOSH        FAIR      73  56  54 S9        30.09S
FOND DU LAC    FAIR      74  56  53 VRB5      30.10F
$$

WIZ022-050-052-272300-
EAST CENTRAL WISCONSIN

CITY           SKY/WX    TMP DP  RH WIND       PRES   REMARKS
EPHRAIM        FAIR      66  58  74 S5        30.10S
STURGEON BAY   FAIR      68  57  68 S9        30.13S
MANITOWOC      FAIR      66  54  65 MISG      30.11F
SHEBOYGAN      FAIR      70  57  63 S9        30.11F
$$

LMZ563-521-522-541>543-272300-
LAKESHORE

STATION/POSITION TIME  TEMP    WIND        PRES    VSBY  WAVE
                       AIR SEA DIR/SP/G                  HT/PER
                 (UTC) (F)     (DEG/KT/KT) (MB)    (MI)  (FT/S)
SHEBOYGAN LKSHOR 2200   60     180/ 21/ 21 1020.0F
KEWAUNEE LKSHORE 2100   53     180/  9/ 10 1018.8
ALGOMA MARINA    2114          210/  9/ 10   N/A
NORTHPORT PIER   2100   63     150/  8/ 11 1019.3F
N MID LAKE BUOY  2150   62 65  200/ 12/ 14 1019.5S         1/ 4
S GREEN BAY BUOY 2200   67     110/  4/  4 1020.2F
SISTER BAY LKSHO 2119   70     180/ 11/ 12   N/A
CHAMBERS ISLAND  2100   67     160/  3/  8 1019.0F
MENOMINEE LKSHOR 2100   63     160/  7/  9 1017.9
$$


USA.gov is the U.S. government's official web portal to all federal, state and local government web resources and services.